SCP
0 0 0 0 0 -0 0 0 0 0 0 0 0 0 0 0 0 0 0 0 0 0 0 0 0 0 0 0 0 0 0 0 0 0 0 0 0 0 0 0 0 0 0 0
0 0 0 0 0 0 0 0 0 0 0 0 0 0 0 0 0 0 0 0 0 0 0 0 0 0 0 0 0 0 0 0 0 0 0 0 0 0 0 0 0 0 0 -0
0 0 0 0 0 0 0 0 0 0 0 0 0 0 0 0 0 0 0 0 0 0 0 0 0 0 0 0 0 0 0 0 0 0 0 0 0 -0 -0 0 0 0 0 0
0 0 0 0 0 0 0 0 0 0 0 0 0 0 0 0 0 0 0 0 0 0 0 0 0 0 0 0 0 0 0 0 0 0 0 0 0 0 0 0 0 0 0 0
0 0 0 0 0 0 0 0 0 0 0 0 0 0 0 0 0 0 0 0 0 0 0 0 0 0 0 0 0 0 0 0 0 0 0 0 0 0 0 0 0 0 0 -0
0 0 0 0 0 0 0 0 0 0 0 0 0 0 0 0 0 0 0 0 0 0 0 0 0 0 0 0 0 0 0 0 0 0 -0 0 0 -0 -0 0 -0 0 -0 0
0 0 0 0 0 0 0 0 0 0 0 0 0 0 0 0 0 0 0 0 0 0 0 0 0 0 0 0 0 0 0 -0 0 -0 0 -0 0 -0 0 -0 0 0 0 0
0 0 0 0 0 0 0 0 0 0 0 0 0 0 0 0 0 0 0 0 0 0 0 0 0 0 0 0 0 0 -0 -0 0 0 -0 -0 -0 0 -0 0 0 0 0 0
0 0 0 0 0 0 0 0 0 0 0 0 0 0 0 0 0 0 0 0 0 0 0 0 0 0 0 0 0 0 0 0 0 0 -0 0 0 -0 0 0 0 0 0 0
0 0 0 0 0 0 0 0 0 0 0 0 0 0 0 0 0 0 0 0 0 0 0 0 0 0 -0 -0 0 0 0 0 -0 -0 -0 -0 0 0 0 0 0 0 0 0
0 0 0 0 0 0 0 0 0 0 0 0 0 0 0 0 0 0 0 0 0 0 0 0 0 0 -0 0 0 0 0 0 0 0 0 0 0 0 0 0 -0 0 0 0
0 0 0 0 0 0 0 0 0 0 0 0 0 0 -0 -0 -0 0 0 0 0 0 0 0 0 0 0 0 0 -0 -0 -0 0 0 0 -0 0 0 0 0 0 0 0 -0
0 0 0 0 0 0 0 0 0 0 0 0 0 0 0 0 0 0 0 0 0 0 -0 -0 0 0 0 0 -0 0 0 -0 0 -0 0 0 0 0 0 0 -0 -0 -0 -0
0 0 0 0 0 0 0 0 0 0 0 0 0 0 0 0 0 0 0 -0 -0 -0 -0 -0 0 0 0 -0 0 -0 0 -0 0 0 0 -0 -0 0 0 -0 -0 -0 -0 -0
0 0 0 0 0 0 0 0 0 0 0 0 0 0 0 -0 0 0 0 0 -0 0 0 0 0 -0 -0 -0 -0 0 0 0 0 0 0 0 0 0 -0 0 0 -0 0 -0
0 0 0 0 0 0 0 0 0 0 0 0 0 0 0 0 0 0 0 0 0 0 0 0 0 0 0 -0 0 0 0 0 0 0 0 0 0 0 0 0 0 -0 -0 -0
0 0 0 0 0 0 0 0 0 0 0 0 0 0 0 0 0 0 0 0 0 0 0 0 0 0 0 0 0 -0 -0 -0 0 0 0 0 0 0 0 0 -0 -0 -0 -0
0 0 0 0 0 0 0 0 0 0 0 0 0 0 0 0 0 0 0 0 0 0 0 -0 0 0 -0 -0 0 -0 -0 0 0 0 0 0 0 0 0 0 0 0 0 -0
0 0 0 0 0 0 0 0 0 0 0 0 0 0 0 0 0 0 0 0 0 0 -0 -0 -0 -0 0 -0 0 0 0 0 0 0 0 0 0 0 0 0 0 -0 -0 -0
0 0 0 0 0 0 0 0 0 0 0 0 0 0 0 0 0 0 0 -0 -0 -0 -0 0 -0 0 0 -0 0 0 0 0 0 0 0 0 0 0 0 0 0 0 -0 -0
0 0 0 0 0 0 0 0 0 0 0 0 0 -0 0 0 0 -0 -0 -0 -0 -0 -0 0 -0 0 -0 -0 0 0 0 0 0 0 0 0 0 -0 0 0 0 0 -0 0
0 0 0 0 0 0 0 0 0 0 0 0 -0 0 0 -0 -0 -0 -0 0 -0 -0 0 0 0 0 -0 0 -0 -0 -0 0 0 0 -0 0 0 0 0 0 0 0 -0 -0
0 0 0 0 0 0 0 0 0 0 0 0 -0 0 -0 -0 -0 -0 -0 0 -0 -0 -0 -0 0 0 -0 -0 0 -0 0 0 0 0 0 -0 -0 0 -0 -0 0 -0 -0 -0
0 0 0 0 0 0 0 0 0 0 0 -0 -0 -0 -0 -0 -0 -0 -0 -0 -0 -0 -0 -0 0 0 -0 0 0 0 0 0 0 0 0 -0 -0 0 0 0 0 -0 -0 -0
0 0 0 0 0 0 0 0 0 0 0 0 -0 -0 -0 -0 -0 -0 -0 -0 -0 -0 -0 -0 -0 0 0 0 0 0 -0 -0 0 0 0 0 0 0 0 0 0 0 -0 0
0 0 0 0 0 -0 0 -0 0 0 0 0 -0 -0 -0 -0 -0 -0 -0 0 0 -0 -0 -0 -0 0 0 0 0 -0 -0 -0 -0 0 -0 -0 -0 -0 0 0 0 0 -0 0
0 0 -0 0 -0 0 -0 0 0 0 0 0 0 0 0 0 0 0 -0 -0 -0 -0 -0 -0 -0 -0 0 0 0 -0 -0 0 -0 -0 -0 -0 -0 -0 -0 0 -0 -0 -0 -0
Wind_Speed_500mb
49 49 51 55 62 55 37 9 8 4 4 19 14 16 12 11 28 33 32 32 35 33 36 39 43 44 34 14 23 28 27 16 30 41 37 27 36 34 30 15 34 31 33 41
47 48 48 49 54 57 53 20 18 4 3 9 13 20 30 33 31 27 18 24 22 25 30 28 29 30 28 22 24 20 21 14 26 36 36 37 24 32 36 34 35 48 37 31
47 47 46 45 45 46 40 14 8 9 11 10 15 23 30 19 17 22 31 33 30 33 36 33 31 35 25 17 24 4 13 31 40 35 42 10 9 33 30 27 24 41 45 51
47 46 44 42 40 39 22 7 6 6 11 21 26 24 29 34 29 21 21 19 25 26 32 34 38 37 37 35 24 17 23 36 40 42 48 47 51 47 46 46 49 43 49 48
50 46 42 39 39 32 11 14 12 14 34 29 25 24 25 32 27 22 30 31 35 33 34 36 41 43 41 41 34 32 25 26 40 50 50 54 53 49 52 53 53 54 53 59
43 48 40 35 36 31 10 15 11 9 20 17 24 24 23 32 38 30 24 25 26 33 35 45 47 51 54 42 38 38 34 28 28 39 42 46 34 48 46 44 47 42 48 48
45 42 37 31 28 30 17 17 12 11 11 8 22 46 38 34 36 38 42 43 36 41 37 43 50 56 57 48 39 39 34 33 24 23 34 33 30 30 29 39 36 32 29 31
46 33 34 32 35 27 23 15 10 11 12 20 28 35 37 44 36 34 33 28 22 26 32 26 27 27 30 22 10 18 24 25 11 15 22 34 46 25 8 17 25 33 22 31
47 42 42 42 35 31 23 14 12 11 15 7 26 37 38 25 24 25 3 11 17 20 20 14 15 8 13 1 10 5 4 7 12 11 12 10 10 17 38 27 30 29 33 35
52 47 40 37 37 35 26 10 18 9 20 22 21 20 23 28 20 16 22 18 15 5 7 8 9 9 9 7 12 4 4 5 22 28 21 20 14 28 30 17 23 55 54 53
54 51 42 38 36 33 29 14 17 11 19 41 22 25 32 28 21 16 25 15 6 10 6 7 7 9 9 11 17 10 9 7 6 12 10 14 26 27 18 31 55 57 60 59
52 49 37 35 31 31 32 18 14 14 20 30 56 47 49 39 31 23 12 20 17 9 7 6 9 10 8 14 8 12 6 5 10 10 14 40 45 47 48 52 51 55 63 71
51 43 37 31 34 32 33 26 15 17 20 39 24 15 16 16 23 23 14 3 9 10 13 14 7 9 7 9 8 17 13 17 11 25 6 32 45 60 55 63 69 73 72 77
51 43 37 29 35 35 34 27 14 14 12 10 5 15 13 11 16 20 26 25 14 14 20 11 7 7 9 9 15 21 15 21 22 33 34 58 54 60 63 73 82 87 85 81
51 43 34 25 30 34 33 28 26 23 17 9 27 42 36 28 21 21 21 24 22 17 8 9 7 13 11 12 14 3 9 5 6 13 46 39 53 78 85 88 84 72 71 78
52 42 28 20 33 34 27 10 8 28 32 9 8 14 13 20 15 14 19 18 15 9 7 11 12 15 8 7 6 9 22 33 35 18 56 64 70 72 70 71 82 86 77 67
46 36 24 31 35 35 22 9 6 16 22 7 10 10 16 24 17 20 12 15 10 10 9 12 15 5 2 3 7 38 44 45 50 45 42 62 57 77 80 84 75 68 62 60
35 26 19 27 30 29 27 29 20 14 18 9 6 9 19 19 16 22 16 17 17 14 9 7 6 3 14 8 18 41 46 53 44 50 63 62 72 71 75 74 71 69 67 62
26 21 21 19 22 12 13 17 26 25 16 6 8 6 1 14 23 14 19 18 9 13 7 6 5 7 3 14 29 41 52 38 56 62 58 61 67 76 75 74 70 65 68 65
27 25 11 9 10 14 18 14 19 20 13 14 11 23 16 6 12 9 10 13 8 7 5 7 7 4 4 13 18 28 46 48 49 55 60 76 68 73 76 72 71 66 63 58
40 17 14 12 18 18 8 10 13 15 8 14 18 27 11 4 6 6 5 4 1 5 5 4 6 5 10 24 24 31 42 45 47 46 52 64 60 75 77 75 70 59 57 56
30 18 17 22 11 8 7 8 8 11 9 18 18 8 11 1 3 6 5 5 7 4 12 5 4 5 22 29 32 39 51 57 50 48 55 63 63 72 76 70 69 63 60 50
31 10 9 8 10 12 11 12 8 7 12 14 14 8 8 9 9 8 5 6 3 6 6 2 4 14 28 31 34 43 49 52 53 50 52 57 65 66 74 70 69 62 59 55
9 14 11 9 10 10 9 14 11 9 8 16 11 7 5 5 3 5 6 2 2 5 5 5 7 25 32 32 34 41 51 54 56 50 55 54 64 61 80 70 66 61 57 55
11 11 9 15 14 18 25 21 6 7 8 9 8 5 9 1 4 5 5 6 4 3 4 6 21 28 30 33 35 40 47 55 62 47 48 54 58 54 59 79 65 67 57 59
8 10 8 8 14 19 15 17 11 10 8 5 9 7 5 4 4 5 5 4 4 4 4 13 19 23 28 32 35 38 42 50 56 44 42 48 57 53 57 69 73 73 64 63
9 13 22 18 20 16 20 14 10 9 10 10 0 5 5 3 5 1 1 3 3 8 10 10 16 22 28 31 34 36 42 49 50 46 42 45 52 50 53 58 80 73 77 67
Wind_Direction_500mb
337 342 347 348 348 351 355 305 267 177 234 258 243 274 334 348 293 287 272 266 276 277 281 282 279 276 272 238 230 264 277 280 281 273 277 257 269 260 219 260 260 250 261 262
332 336 342 348 353 351 348 311 284 279 251 268 298 312 303 294 285 285 276 267 270 283 286 291 275 277 281 290 303 294 310 257 270 269 255 253 268 265 263 261 262 254 268 252
328 330 336 343 351 350 348 314 302 197 222 286 303 320 301 294 282 276 282 279 284 284 276 270 265 274 268 259 253 123 308 272 267 270 286 166 246 268 262 278 260 267 255 264
323 325 330 338 349 350 355 315 14 347 309 326 329 303 294 292 293 298 275 275 268 274 287 290 286 292 290 274 241 217 230 255 269 278 279 276 278 277 273 265 260 259 270 264
319 320 325 334 344 357 1 329 339 329 296 304 301 300 284 301 311 316 290 287 303 301 288 292 298 295 287 289 295 278 238 263 271 271 268 272 271 275 269 261 264 269 257 262
308 315 322 331 342 2 346 331 307 296 281 310 296 299 315 305 310 298 289 287 295 289 295 305 300 295 290 284 279 276 281 277 266 272 270 272 263 255 256 261 258 263 267 263
293 302 313 325 339 349 352 320 310 281 273 319 294 309 303 301 300 298 300 300 291 298 309 301 286 271 258 251 250 248 257 260 262 277 288 276 270 324 293 274 260 273 233 251
292 283 296 308 316 313 324 312 301 288 284 309 298 326 314 307 293 279 287 301 312 310 297 279 277 265 226 242 337 239 239 254 262 252 261 275 281 287 273 269 284 283 356 343
287 273 273 281 286 299 310 297 285 281 296 227 325 303 298 288 313 303 308 305 309 295 276 270 276 304 323 278 131 64 157 219 201 234 262 267 33 263 275 328 287 15 341 322
286 276 278 281 280 286 293 263 285 271 277 278 319 293 313 301 300 287 274 352 290 237 278 289 279 313 328 311 333 188 178 158 215 229 242 274 26 344 325 278 333 329 327 318
283 279 276 277 277 282 290 240 258 244 270 285 275 284 278 282 259 283 347 306 226 278 281 302 338 317 332 309 297 282 196 255 202 244 251 263 358 331 339 320 312 313 311 309
285 282 273 274 267 289 295 278 247 257 257 268 290 284 258 249 255 287 298 306 328 325 335 328 318 314 301 327 305 329 322 283 296 285 290 317 350 338 328 311 304 305 305 304
282 274 266 278 268 286 294 277 233 279 284 303 271 279 255 231 233 228 257 351 345 354 334 307 297 283 317 291 280 317 322 338 299 320 324 316 334 321 321 315 310 304 300 302
275 272 263 266 260 276 286 273 247 239 287 278 294 256 257 227 217 222 232 258 296 311 298 294 277 278 304 295 311 302 346 314 342 296 295 326 309 313 309 305 303 299 294 297
267 267 260 266 258 265 285 266 244 221 228 298 294 292 252 241 238 231 239 249 261 274 278 245 251 272 293 276 271 343 11 342 295 289 310 295 292 298 302 297 298 311 314 308
263 265 254 249 256 249 292 293 232 218 230 278 286 336 228 192 213 228 233 240 240 222 232 266 266 280 281 294 278 136 338 334 330 299 301 296 295 301 304 317 325 319 308 302
261 265 239 243 250 251 260 229 200 202 185 248 277 272 201 203 229 224 186 183 208 215 232 240 259 317 189 275 284 347 343 329 321 317 318 313 312 308 316 324 320 316 313 309
249 253 230 240 233 265 263 232 212 193 195 239 267 274 223 197 241 228 186 176 193 215 247 260 268 256 210 231 332 343 331 323 319 316 318 304 311 320 325 331 327 324 322 321
231 201 225 226 259 225 235 205 215 199 237 255 221 261 328 187 256 243 245 195 216 187 216 225 217 234 161 344 325 318 328 324 313 316 321 325 326 331 330 334 337 332 328 329
186 192 181 216 208 194 160 139 167 201 225 230 251 247 262 312 302 278 199 205 208 197 167 150 231 102 51 343 331 327 330 329 324 325 329 329 331 337 335 333 332 332 333 330
174 181 195 204 166 156 193 203 193 194 224 216 236 243 290 236 282 272 258 288 226 280 128 235 218 139 345 345 348 341 338 335 332 330 327 327 335 338 337 338 347 346 347 344
179 172 151 142 169 197 220 213 209 199 239 184 222 190 219 140 279 259 244 251 185 270 160 226 186 67 352 347 343 345 340 341 337 339 334 335 343 344 347 347 350 351 354 352
151 133 149 171 174 218 218 203 197 219 193 171 179 182 184 164 232 257 260 252 251 300 221 100 57 359 348 346 341 338 337 343 341 340 340 341 344 347 356 353 357 358 1 4
148 159 174 219 184 231 205 235 245 116 154 163 193 157 161 195 201 267 259 296 308 266 238 104 57 353 341 340 338 339 335 341 341 339 339 343 347 346 0 4 1 6 6 7
171 191 209 211 234 246 226 234 134 159 150 159 170 146 119 153 255 250 272 273 227 261 5 21 340 332 335 336 339 339 338 337 342 339 340 339 343 350 351 5 6 15 14 14
194 224 226 220 219 242 200 199 162 171 185 176 246 170 137 211 200 231 231 239 237 46 3 322 322 330 333 337 338 340 338 336 345 342 339 339 341 353 355 356 9 13 20 18
218 218 213 247 240 212 193 192 144 169 218 219 51 226 160 180 222 217 155 236 23 322 318 336 330 330 333 336 336 340 338 342 350 347 345 346 349 355 359 0 3 10 16 22
Wind_Speed_850mb
49 49 51 55 62 55 37 9 8 4 4 19 14 16 12 11 28 33 32 32 35 33 36 39 43 44 34 14 23 28 27 16 30 41 37 27 36 34 30 15 34 31 33 41
47 48 48 49 54 57 53 20 18 4 3 9 13 20 30 33 31 27 18 24 22 25 30 28 29 30 28 22 24 20 21 14 26 36 36 37 24 32 36 34 35 48 37 31
47 47 46 45 45 46 40 14 8 9 11 10 15 23 30 19 17 22 31 33 30 33 36 33 31 35 25 17 24 4 13 31 40 35 42 10 9 33 30 27 24 41 45 51
47 46 44 42 40 39 22 7 6 6 11 21 26 24 29 34 29 21 21 19 25 26 32 34 38 37 37 35 24 17 23 36 40 42 48 47 51 47 46 46 49 43 49 48
50 46 42 39 39 32 11 14 12 14 34 29 25 24 25 32 27 22 30 31 35 33 34 36 41 43 41 41 34 32 25 26 40 50 50 54 53 49 52 53 53 54 53 59
43 48 40 35 36 31 10 15 11 9 20 17 24 24 23 32 38 30 24 25 26 33 35 45 47 51 54 42 38 38 34 28 28 39 42 46 34 48 46 44 47 42 48 48
45 42 37 31 28 30 17 17 12 11 11 8 22 46 38 34 36 38 42 43 36 41 37 43 50 56 57 48 39 39 34 33 24 23 34 33 30 30 29 39 36 32 29 31
46 33 34 32 35 27 23 15 10 11 12 20 28 35 37 44 36 34 33 28 22 26 32 26 27 27 30 22 10 18 24 25 11 15 22 34 46 25 8 17 25 33 22 31
47 42 42 42 35 31 23 14 12 11 15 7 26 37 38 25 24 25 3 11 17 20 20 14 15 8 13 1 10 5 4 7 12 11 12 10 10 17 38 27 30 29 33 35
52 47 40 37 37 35 26 10 18 9 20 22 21 20 23 28 20 16 22 18 15 5 7 8 9 9 9 7 12 4 4 5 22 28 21 20 14 28 30 17 23 55 54 53
54 51 42 38 36 33 29 14 17 11 19 41 22 25 32 28 21 16 25 15 6 10 6 7 7 9 9 11 17 10 9 7 6 12 10 14 26 27 18 31 55 57 60 59
52 49 37 35 31 31 32 18 14 14 20 30 56 47 49 39 31 23 12 20 17 9 7 6 9 10 8 14 8 12 6 5 10 10 14 40 45 47 48 52 51 55 63 71
51 43 37 31 34 32 33 26 15 17 20 39 24 15 16 16 23 23 14 3 9 10 13 14 7 9 7 9 8 17 13 17 11 25 6 32 45 60 55 63 69 73 72 77
51 43 37 29 35 35 34 27 14 14 12 10 5 15 13 11 16 20 26 25 14 14 20 11 7 7 9 9 15 21 15 21 22 33 34 58 54 60 63 73 82 87 85 81
51 43 34 25 30 34 33 28 26 23 17 9 27 42 36 28 21 21 21 24 22 17 8 9 7 13 11 12 14 3 9 5 6 13 46 39 53 78 85 88 84 72 71 78
52 42 28 20 33 34 27 10 8 28 32 9 8 14 13 20 15 14 19 18 15 9 7 11 12 15 8 7 6 9 22 33 35 18 56 64 70 72 70 71 82 86 77 67
46 36 24 31 35 35 22 9 6 16 22 7 10 10 16 24 17 20 12 15 10 10 9 12 15 5 2 3 7 38 44 45 50 45 42 62 57 77 80 84 75 68 62 60
35 26 19 27 30 29 27 29 20 14 18 9 6 9 19 19 16 22 16 17 17 14 9 7 6 3 14 8 18 41 46 53 44 50 63 62 72 71 75 74 71 69 67 62
26 21 21 19 22 12 13 17 26 25 16 6 8 6 1 14 23 14 19 18 9 13 7 6 5 7 3 14 29 41 52 38 56 62 58 61 67 76 75 74 70 65 68 65
27 25 11 9 10 14 18 14 19 20 13 14 11 23 16 6 12 9 10 13 8 7 5 7 7 4 4 13 18 28 46 48 49 55 60 76 68 73 76 72 71 66 63 58
40 17 14 12 18 18 8 10 13 15 8 14 18 27 11 4 6 6 5 4 1 5 5 4 6 5 10 24 24 31 42 45 47 46 52 64 60 75 77 75 70 59 57 56
30 18 17 22 11 8 7 8 8 11 9 18 18 8 11 1 3 6 5 5 7 4 12 5 4 5 22 29 32 39 51 57 50 48 55 63 63 72 76 70 69 63 60 50
31 10 9 8 10 12 11 12 8 7 12 14 14 8 8 9 9 8 5 6 3 6 6 2 4 14 28 31 34 43 49 52 53 50 52 57 65 66 74 70 69 62 59 55
9 14 11 9 10 10 9 14 11 9 8 16 11 7 5 5 3 5 6 2 2 5 5 5 7 25 32 32 34 41 51 54 56 50 55 54 64 61 80 70 66 61 57 55
11 11 9 15 14 18 25 21 6 7 8 9 8 5 9 1 4 5 5 6 4 3 4 6 21 28 30 33 35 40 47 55 62 47 48 54 58 54 59 79 65 67 57 59
8 10 8 8 14 19 15 17 11 10 8 5 9 7 5 4 4 5 5 4 4 4 4 13 19 23 28 32 35 38 42 50 56 44 42 48 57 53 57 69 73 73 64 63
9 13 22 18 20 16 20 14 10 9 10 10 0 5 5 3 5 1 1 3 3 8 10 10 16 22 28 31 34 36 42 49 50 46 42 45 52 50 53 58 80 73 77 67
Wind_Direction_850mb
337 342 347 348 348 351 355 305 267 177 234 258 243 274 334 348 293 287 272 266 276 277 281 282 279 276 272 238 230 264 277 280 281 273 277 257 269 260 219 260 260 250 261 262
332 336 342 348 353 351 348 311 284 279 251 268 298 312 303 294 285 285 276 267 270 283 286 291 275 277 281 290 303 294 310 257 270 269 255 253 268 265 263 261 262 254 268 252
328 330 336 343 351 350 348 314 302 197 222 286 303 320 301 294 282 276 282 279 284 284 276 270 265 274 268 259 253 123 308 272 267 270 286 166 246 268 262 278 260 267 255 264
323 325 330 338 349 350 355 315 14 347 309 326 329 303 294 292 293 298 275 275 268 274 287 290 286 292 290 274 241 217 230 255 269 278 279 276 278 277 273 265 260 259 270 264
319 320 325 334 344 357 1 329 339 329 296 304 301 300 284 301 311 316 290 287 303 301 288 292 298 295 287 289 295 278 238 263 271 271 268 272 271 275 269 261 264 269 257 262
308 315 322 331 342 2 346 331 307 296 281 310 296 299 315 305 310 298 289 287 295 289 295 305 300 295 290 284 279 276 281 277 266 272 270 272 263 255 256 261 258 263 267 263
293 302 313 325 339 349 352 320 310 281 273 319 294 309 303 301 300 298 300 300 291 298 309 301 286 271 258 251 250 248 257 260 262 277 288 276 270 324 293 274 260 273 233 251
292 283 296 308 316 313 324 312 301 288 284 309 298 326 314 307 293 279 287 301 312 310 297 279 277 265 226 242 337 239 239 254 262 252 261 275 281 287 273 269 284 283 356 343
287 273 273 281 286 299 310 297 285 281 296 227 325 303 298 288 313 303 308 305 309 295 276 270 276 304 323 278 131 64 157 219 201 234 262 267 33 263 275 328 287 15 341 322
286 276 278 281 280 286 293 263 285 271 277 278 319 293 313 301 300 287 274 352 290 237 278 289 279 313 328 311 333 188 178 158 215 229 242 274 26 344 325 278 333 329 327 318
283 279 276 277 277 282 290 240 258 244 270 285 275 284 278 282 259 283 347 306 226 278 281 302 338 317 332 309 297 282 196 255 202 244 251 263 358 331 339 320 312 313 311 309
285 282 273 274 267 289 295 278 247 257 257 268 290 284 258 249 255 287 298 306 328 325 335 328 318 314 301 327 305 329 322 283 296 285 290 317 350 338 328 311 304 305 305 304
282 274 266 278 268 286 294 277 233 279 284 303 271 279 255 231 233 228 257 351 345 354 334 307 297 283 317 291 280 317 322 338 299 320 324 316 334 321 321 315 310 304 300 302
275 272 263 266 260 276 286 273 247 239 287 278 294 256 257 227 217 222 232 258 296 311 298 294 277 278 304 295 311 302 346 314 342 296 295 326 309 313 309 305 303 299 294 297
267 267 260 266 258 265 285 266 244 221 228 298 294 292 252 241 238 231 239 249 261 274 278 245 251 272 293 276 271 343 11 342 295 289 310 295 292 298 302 297 298 311 314 308
263 265 254 249 256 249 292 293 232 218 230 278 286 336 228 192 213 228 233 240 240 222 232 266 266 280 281 294 278 136 338 334 330 299 301 296 295 301 304 317 325 319 308 302
261 265 239 243 250 251 260 229 200 202 185 248 277 272 201 203 229 224 186 183 208 215 232 240 259 317 189 275 284 347 343 329 321 317 318 313 312 308 316 324 320 316 313 309
249 253 230 240 233 265 263 232 212 193 195 239 267 274 223 197 241 228 186 176 193 215 247 260 268 256 210 231 332 343 331 323 319 316 318 304 311 320 325 331 327 324 322 321
231 201 225 226 259 225 235 205 215 199 237 255 221 261 328 187 256 243 245 195 216 187 216 225 217 234 161 344 325 318 328 324 313 316 321 325 326 331 330 334 337 332 328 329
186 192 181 216 208 194 160 139 167 201 225 230 251 247 262 312 302 278 199 205 208 197 167 150 231 102 51 343 331 327 330 329 324 325 329 329 331 337 335 333 332 332 333 330
174 181 195 204 166 156 193 203 193 194 224 216 236 243 290 236 282 272 258 288 226 280 128 235 218 139 345 345 348 341 338 335 332 330 327 327 335 338 337 338 347 346 347 344
179 172 151 142 169 197 220 213 209 199 239 184 222 190 219 140 279 259 244 251 185 270 160 226 186 67 352 347 343 345 340 341 337 339 334 335 343 344 347 347 350 351 354 352
151 133 149 171 174 218 218 203 197 219 193 171 179 182 184 164 232 257 260 252 251 300 221 100 57 359 348 346 341 338 337 343 341 340 340 341 344 347 356 353 357 358 1 4
148 159 174 219 184 231 205 235 245 116 154 163 193 157 161 195 201 267 259 296 308 266 238 104 57 353 341 340 338 339 335 341 341 339 339 343 347 346 0 4 1 6 6 7
171 191 209 211 234 246 226 234 134 159 150 159 170 146 119 153 255 250 272 273 227 261 5 21 340 332 335 336 339 339 338 337 342 339 340 339 343 350 351 5 6 15 14 14
194 224 226 220 219 242 200 199 162 171 185 176 246 170 137 211 200 231 231 239 237 46 3 322 322 330 333 337 338 340 338 336 345 342 339 339 341 353 355 356 9 13 20 18
218 218 213 247 240 212 193 192 144 169 218 219 51 226 160 180 222 217 155 236 23 322 318 336 330 330 333 336 336 340 338 342 350 347 345 346 349 355 359 0 3 10 16 22